| time (UTC) | temp F | wind direction | speed MPH | gust MPH | rain 1hr in | rain 24hr in | rain mn in | humidity % | barometer mb |
| 20260502210003 | 44 | 0 | 0.0 | 0.0 | 0.00 | 0.05 | 0.05 | 67 | 1014.6 |
| 20260502205619 | 44 | 0 | 0.0 | 0.0 | 0.00 | 0.06 | 0.05 | 67 | 1014.7 |
| 20260502204503 | 45 | 0 | 0.0 | 0.0 | 0.00 | 0.06 | 0.05 | 64 | 1014.7 |
| 20260502203604 | 46 | 0 | 0.0 | 0.0 | 0.00 | 0.06 | 0.05 | 67 | 1014.7 |
| 20260502202703 | 45 | 0 | 0.0 | 0.0 | 0.00 | 0.06 | 0.05 | 71 | 1014.7 |
| 20260502201804 | 43 | 0 | 0.0 | 0.0 | 0.00 | 0.06 | 0.05 | 74 | 1014.8 |
| 20260502200903 | 42 | 0 | 0.0 | 0.0 | 0.00 | 0.06 | 0.05 | 75 | 1015.0 |
| 20260502200003 | 42 | 0 | 0.0 | 0.0 | 0.00 | 0.06 | 0.05 | 77 | 1015.1 |
| 20260502195403 | 42 | 0 | 0.0 | 0.0 | 0.00 | 0.06 | 0.05 | 78 | 1015.1 |
| 20260502194504 | 42 | 0 | 0.0 | 0.0 | 0.00 | 0.06 | 0.05 | 77 | 1015.2 |
| 20260502193603 | 42 | 0 | 0.0 | 0.0 | 0.00 | 0.06 | 0.05 | 77 | 1015.2 |
| 20260502192917 | 42 | 0 | 0.0 | 0.0 | 0.00 | 0.06 | 0.05 | 77 | 1015.3 |
| 20260502192020 | 42 | 0 | 0.0 | 0.0 | 0.00 | 0.06 | 0.05 | 77 | 1015.3 |
| 20260502190903 | 42 | 0 | 0.0 | 0.0 | 0.00 | 0.06 | 0.05 | 80 | 1015.4 |
| 20260502190219 | 41 | 0 | 0.0 | 0.0 | 0.01 | 0.06 | 0.05 | 82 | 1015.5 |
| 20260502185404 | 41 | 0 | 0.0 | 0.0 | 0.01 | 0.06 | 0.05 | 84 | 1015.5 |
| 20260502184718 | 41 | 0 | 0.0 | 0.0 | 0.01 | 0.06 | 0.05 | 86 | 1015.5 |
| 20260502183603 | 40 | 0 | 0.0 | 0.0 | 0.01 | 0.06 | 0.05 | 88 | 1015.6 |
| 20260502182703 | 40 | 0 | 0.0 | 0.0 | 0.01 | 0.06 | 0.05 | 89 | 1015.7 |
| 20260502181804 | 39 | 0 | 0.0 | 0.0 | 0.01 | 0.07 | 0.05 | 88 | 1015.7 |
| 20260502180903 | 39 | 0 | 0.0 | 0.0 | 0.01 | 0.07 | 0.05 | 87 | 1015.7 |
| 20260502163603 | 39 | 0 | 0.0 | 0.0 | 0.01 | 0.18 | 0.04 | 91 | 1015.8 |
| 20260502162704 | 39 | 0 | 0.0 | 0.0 | 0.02 | 0.18 | 0.04 | 91 | 1015.9 |
| 20260502161804 | 38 | 0 | 0.0 | 0.0 | 0.03 | 0.19 | 0.04 | 92 | 1015.9 |
| 20260502160903 | 38 | 0 | 0.0 | 0.0 | 0.03 | 0.20 | 0.04 | 91 | 1015.9 |
| 20260502150903 | 39 | 0 | 0.0 | 0.0 | 0.00 | 0.20 | 0.01 | 82 | 1015.7 |
| 20260502123604 | 36 | 0 | 0.0 | 0.0 | 0.00 | 0.31 | 0.01 | 90 | 1014.6 |
| 20260502122921 | 36 | 0 | 0.0 | 0.0 | 0.00 | 0.31 | 0.01 | 89 | 1014.6 |
| 20260502122019 | 35 | 0 | 0.0 | 0.0 | 0.00 | 0.31 | 0.01 | 89 | 1014.6 |
| 20260502120903 | 35 | 0 | 0.0 | 0.0 | 0.00 | 0.32 | 0.01 | 88 | 1014.7 |
| 20260502120218 | 35 | 0 | 0.0 | 0.0 | 0.00 | 0.32 | 0.01 | 88 | 1014.8 |
| 20260502115403 | 34 | 0 | 0.0 | 0.0 | 0.00 | 0.32 | 0.01 | 88 | 1014.7 |
| 20260502113820 | 34 | 0 | 0.0 | 0.0 | 0.00 | 0.32 | 0.01 | 89 | 1014.7 |
| 20260502112917 | 36 | 0 | 0.0 | 0.0 | 0.00 | 0.32 | 0.01 | 86 | 1014.6 |
| 20260502111803 | 36 | 0 | 0.0 | 0.0 | 0.00 | 0.32 | 0.01 | 86 | 1014.3 |
| 20260502110904 | 36 | 0 | 0.0 | 0.0 | 0.00 | 0.32 | 0.01 | 86 | 1014.2 |
| 20260502110004 | 36 | 0 | 0.0 | 0.0 | 0.00 | 0.32 | 0.01 | 86 | 1014.1 |
| 20260502105404 | 36 | 0 | 0.0 | 0.0 | 0.00 | 0.32 | 0.01 | 86 | 1014.1 |
| 20260502104503 | 36 | 0 | 0.0 | 0.0 | 0.00 | 0.32 | 0.01 | 86 | 1014.1 |
| 20260502103603 | 36 | 0 | 0.0 | 0.0 | 0.00 | 0.33 | 0.01 | 86 | 1014.2 |
| 20260502102703 | 36 | 0 | 0.0 | 0.0 | 0.00 | 0.33 | 0.01 | 86 | 1014.2 |
| 20260502101804 | 36 | 0 | 0.0 | 0.0 | 0.00 | 0.33 | 0.01 | 86 | 1014.2 |
| 20260502100903 | 36 | 0 | 0.0 | 0.0 | 0.00 | 0.33 | 0.01 | 86 | 1014.1 |
| 20260502091118 | 36 | 0 | 0.0 | 0.0 | 0.00 | 0.33 | 0.01 | 86 | 1014.1 |
| 20260502071119 | 37 | 0 | 0.0 | 0.0 | 0.00 | 0.33 | 0.01 | 92 | 1013.6 |
| 20260502070004 | 37 | 0 | 0.0 | 0.0 | 0.00 | 0.33 | 0.01 | 92 | 1013.6 |
| 20260502065403 | 37 | 0 | 0.0 | 0.0 | 0.00 | 0.33 | 0.01 | 92 | 1013.6 |
| 20260502064503 | 38 | 0 | 0.0 | 0.0 | 0.00 | 0.33 | 0.01 | 92 | 1013.6 |
| 20260502063818 | 38 | 0 | 0.0 | 0.0 | 0.00 | 0.33 | 0.01 | 92 | 1013.7 |
| 20260502062920 | 38 | 0 | 0.0 | 0.0 | 0.01 | 0.33 | 0.01 | 92 | 1013.8 |
| 20260502061804 | 38 | 0 | 0.0 | 0.0 | 0.01 | 0.33 | 0.01 | 92 | 1013.9 |
| 20260502060903 | 39 | 0 | 0.0 | 0.0 | 0.01 | 0.33 | 0.01 | 92 | 1014.0 |
| 20260502060003 | 39 | 0 | 0.0 | 0.0 | 0.01 | 0.33 | 0.01 | 92 | 1014.0 |
| 20260502055404 | 39 | 0 | 0.0 | 0.0 | 0.01 | 0.33 | 0.01 | 92 | 1014.0 |
| 20260502054503 | 40 | 0 | 0.0 | 0.0 | 0.01 | 0.33 | 0.01 | 92 | 1014.1 |
| 20260502053818 | 40 | 0 | 0.0 | 0.0 | 0.01 | 0.33 | 0.01 | 92 | 1014.1 |
| 20260502052704 | 40 | 0 | 0.0 | 0.0 | 0.00 | 0.32 | 0.00 | 93 | 1014.2 |
| 20260502051803 | 40 | 0 | 0.0 | 0.0 | 0.00 | 0.32 | 0.00 | 93 | 1014.1 |
| 20260502050903 | 40 | 0 | 0.0 | 0.0 | 0.00 | 0.32 | 0.00 | 93 | 1014.1 |
| 20260502050003 | 40 | 0 | 0.0 | 0.0 | 0.00 | 0.32 | 0.00 | 93 | 1014.1 |
| 20260502045403 | 39 | 0 | 0.0 | 0.0 | 0.00 | 0.32 | 0.00 | 93 | 1014.1 |
| 20260502044717 | 39 | 0 | 0.0 | 0.0 | 0.00 | 0.32 | 0.00 | 93 | 1014.1 |
| 20260502043603 | 39 | 0 | 0.0 | 0.0 | 0.00 | 0.32 | 0.00 | 92 | 1014.0 |
| 20260502042704 | 39 | 0 | 0.0 | 0.0 | 0.00 | 0.32 | 0.00 | 92 | 1014.0 |
| 20260502042019 | 39 | 0 | 0.0 | 0.0 | 0.00 | 0.32 | 0.00 | 92 | 1014.0 |
| 20260502041121 | 39 | 0 | 0.0 | 0.0 | 0.00 | 0.32 | 0.00 | 92 | 1014.3 |
| 20260502040005 | 39 | 0 | 0.0 | 0.0 | 0.00 | 0.32 | 0.00 | 91 | 1014.3 |
| 20260502035403 | 39 | 0 | 0.0 | 0.0 | 0.00 | 0.32 | 0.32 | 91 | 1014.2 |
| 20260502034504 | 39 | 0 | 0.0 | 0.0 | 0.00 | 0.32 | 0.32 | 91 | 1014.2 |
| 20260502033820 | 40 | 0 | 0.0 | 0.0 | 0.00 | 0.32 | 0.32 | 92 | 1014.3 |
| 20260502032703 | 40 | 0 | 0.0 | 0.0 | 0.00 | 0.32 | 0.32 | 92 | 1014.3 |
| 20260502031803 | 40 | 0 | 0.0 | 0.0 | 0.00 | 0.32 | 0.32 | 92 | 1014.3 |
| 20260502030903 | 39 | 0 | 0.0 | 0.0 | 0.00 | 0.32 | 0.32 | 92 | 1014.3 |
| 20260502030003 | 38 | 0 | 0.0 | 0.0 | 0.00 | 0.32 | 0.32 | 91 | 1014.1 |
| 20260502025404 | 38 | 0 | 0.0 | 0.0 | 0.00 | 0.32 | 0.32 | 90 | 1014.0 |
| 20260502024503 | 38 | 0 | 0.0 | 0.0 | 0.00 | 0.32 | 0.32 | 90 | 1013.9 |
| 20260502023603 | 38 | 0 | 0.0 | 0.0 | 0.00 | 0.32 | 0.32 | 89 | 1013.9 |
| 20260502022704 | 39 | 0 | 0.0 | 0.0 | 0.00 | 0.32 | 0.32 | 89 | 1013.9 |
| 20260502021804 | 39 | 0 | 0.0 | 0.0 | 0.00 | 0.32 | 0.32 | 88 | 1014.0 |
| 20260502021123 | 39 | 0 | 0.0 | 0.0 | 0.00 | 0.32 | 0.32 | 88 | 1014.0 |
| 20260502020220 | 40 | 0 | 0.0 | 0.0 | 0.00 | 0.32 | 0.32 | 87 | 1014.0 |
| 20260502015403 | 40 | 0 | 0.0 | 0.0 | 0.00 | 0.32 | 0.32 | 87 | 1013.9 |
| 20260502014504 | 41 | 0 | 0.0 | 0.0 | 0.00 | 0.32 | 0.32 | 87 | 1013.8 |
| 20260502013604 | 41 | 0 | 0.0 | 0.0 | 0.00 | 0.32 | 0.32 | 86 | 1013.8 |
| 20260502012703 | 42 | 0 | 0.0 | 0.0 | 0.00 | 0.32 | 0.32 | 86 | 1013.9 |
| 20260502011803 | 42 | 0 | 0.0 | 0.0 | 0.00 | 0.32 | 0.32 | 87 | 1013.6 |
| 20260502010903 | 42 | 0 | 0.0 | 0.0 | 0.00 | 0.32 | 0.32 | 86 | 1013.5 |
| 20260502010004 | 42 | 0 | 0.0 | 0.0 | 0.00 | 0.32 | 0.32 | 85 | 1013.3 |
| 20260502005404 | 42 | 0 | 0.0 | 0.0 | 0.00 | 0.32 | 0.32 | 85 | 1013.4 |
| 20260502004503 | 43 | 0 | 0.0 | 0.0 | 0.00 | 0.32 | 0.32 | 84 | 1013.3 |
| 20260502003603 | 43 | 0 | 0.0 | 0.0 | 0.00 | 0.32 | 0.32 | 83 | 1013.3 |
| 20260502002703 | 43 | 0 | 0.0 | 0.0 | 0.00 | 0.32 | 0.32 | 83 | 1013.3 |
| 20260502001804 | 43 | 0 | 0.0 | 0.0 | 0.00 | 0.32 | 0.32 | 82 | 1013.0 |
| 20260502000903 | 43 | 0 | 0.0 | 0.0 | 0.00 | 0.32 | 0.32 | 82 | 1012.9 |
| 20260502000003 | 43 | 0 | 0.0 | 0.0 | 0.00 | 0.32 | 0.32 | 82 | 1012.8 |
| 20260501235617 | 43 | 0 | 0.0 | 0.0 | 0.00 | 0.32 | 0.32 | 81 | 1012.8 |
| 20260501234504 | 43 | 0 | 0.0 | 0.0 | 0.00 | 0.32 | 0.32 | 81 | 1012.7 |
| 20260501233817 | 43 | 0 | 0.0 | 0.0 | 0.00 | 0.32 | 0.32 | 82 | 1012.6 |
| 20260501232703 | 43 | 0 | 0.0 | 0.0 | 0.00 | 0.32 | 0.32 | 81 | 1012.6 |
| 20260501231803 | 44 | 0 | 0.0 | 0.0 | 0.00 | 0.32 | 0.32 | 81 | 1012.5 |
| 20260501230904 | 44 | 0 | 0.0 | 0.0 | 0.00 | 0.32 | 0.32 | 82 | 1012.5 |
| 20260501230003 | 44 | 0 | 0.0 | 0.0 | 0.00 | 0.32 | 0.32 | 82 | 1012.6 |
| 20260501225403 | 44 | 0 | 0.0 | 0.0 | 0.00 | 0.32 | 0.32 | 82 | 1012.7 |
| 20260501224503 | 44 | 0 | 0.0 | 0.0 | 0.00 | 0.32 | 0.32 | 82 | 1012.7 |
| 20260501223604 | 44 | 0 | 0.0 | 0.0 | 0.00 | 0.32 | 0.32 | 83 | 1012.8 |
| 20260501222704 | 44 | 0 | 0.0 | 0.0 | 0.00 | 0.32 | 0.32 | 82 | 1012.8 |
| 20260501221804 | 45 | 0 | 0.0 | 0.0 | 0.00 | 0.32 | 0.32 | 83 | 1012.7 |
| 20260501220904 | 45 | 0 | 0.0 | 0.0 | 0.00 | 0.32 | 0.32 | 83 | 1012.6 |
| 20260501220003 | 45 | 0 | 0.0 | 0.0 | 0.00 | 0.32 | 0.32 | 84 | 1012.4 |
| 20260501215619 | 45 | 0 | 0.0 | 0.0 | 0.01 | 0.32 | 0.32 | 85 | 1012.3 |
| 20260501214721 | 45 | 0 | 0.0 | 0.0 | 0.01 | 0.32 | 0.32 | 86 | 1012.2 |
| 20260501213603 | 44 | 0 | 0.0 | 0.0 | 0.01 | 0.32 | 0.32 | 88 | 1012.3 |
| 20260501212921 | 43 | 0 | 0.0 | 0.0 | 0.01 | 0.32 | 0.32 | 87 | 1012.3 |
| 20260501211804 | 43 | 0 | 0.0 | 0.0 | 0.01 | 0.32 | 0.32 | 88 | 1012.3 |
| 20260501210904 | 42 | 0 | 0.0 | 0.0 | 0.01 | 0.32 | 0.32 | 88 | 1012.4 |